Time,TemperatureF,DewpointF,PressureIn,WindDirection,WindDirectionDegrees,WindSpeedMPH,WindSpeedGustMPH,Humidity,HourlyPrecipIn,Conditions,Clouds,dailyrainin,SoftwareType,DateUTC
2013-06-25 00:00:00,65.8,63.7,30.01,East,91,0.0,3.0,93,0.00,,,0.02,meteohub,2013-06-25 04:00:00,
2013-06-25 00:01:00,65.8,63.7,30.01,East,91,0.0,3.0,93,0.00,,,0.02,meteohub,2013-06-25 04:01:00,
2013-06-25 00:06:00,65.7,63.9,30.01,East,91,0.0,3.0,94,0.00,,,0.02,meteohub,2013-06-25 04:06:00,
2013-06-25 00:11:00,65.1,63.3,30.01,East,91,0.0,3.0,94,0.00,,,0.02,meteohub,2013-06-25 04:11:00,
2013-06-25 00:16:00,64.9,63.5,30.01,East,91,0.0,2.0,95,0.00,,,0.02,meteohub,2013-06-25 04:16:00,
2013-06-25 00:21:00,64.9,63.5,30.01,East,91,0.0,1.0,95,0.00,,,0.02,meteohub,2013-06-25 04:21:00,
2013-06-25 00:26:00,64.6,63.1,30.01,East,91,0.0,1.0,95,0.00,,,0.02,meteohub,2013-06-25 04:26:00,
2013-06-25 00:31:00,64.2,62.8,30.00,East,91,0.0,1.0,95,0.00,,,0.02,meteohub,2013-06-25 04:31:00,
2013-06-25 00:36:00,63.9,62.4,30.00,East,91,0.0,1.0,95,0.00,,,0.02,meteohub,2013-06-25 04:36:00,
2013-06-25 00:41:00,63.9,62.8,30.00,East,91,0.0,1.0,96,0.00,,,0.02,meteohub,2013-06-25 04:41:00,
2013-06-25 00:47:00,63.7,62.6,30.00,East,91,0.0,1.0,96,0.00,,,0.02,meteohub,2013-06-25 04:47:00,
2013-06-25 00:52:00,63.7,62.6,29.99,East,91,0.0,1.0,96,0.00,,,0.02,meteohub,2013-06-25 04:52:00,
2013-06-25 00:57:00,63.5,62.4,30.00,East,91,1.0,1.0,96,0.00,,,0.02,meteohub,2013-06-25 04:57:00,
2013-06-25 01:02:00,63.5,62.4,29.99,East,91,1.0,1.0,96,0.00,,,0.02,meteohub,2013-06-25 05:02:00,
2013-06-25 01:07:00,63.1,62.2,29.99,East,91,1.0,1.0,97,0.00,,,0.02,meteohub,2013-06-25 05:07:00,
2013-06-25 01:12:00,63.5,62.6,29.99,NW,325,0.0,2.0,97,0.00,,,0.02,meteohub,2013-06-25 05:12:00,
2013-06-25 01:17:00,64.0,63.0,29.99,NW,313,3.0,5.0,96,0.00,,,0.02,meteohub,2013-06-25 05:17:00,
2013-06-25 01:22:00,64.6,63.1,29.99,West,261,0.0,5.0,95,0.00,,,0.02,meteohub,2013-06-25 05:22:00,
2013-06-25 01:27:00,64.9,62.8,29.99,NW,319,0.0,5.0,93,0.00,,,0.02,meteohub,2013-06-25 05:27:00,
2013-06-25 01:32:00,65.3,63.0,29.99,WSW,249,0.0,5.0,92,0.00,,,0.02,meteohub,2013-06-25 05:32:00,
2013-06-25 01:37:00,65.5,63.1,29.98,WSW,249,0.0,3.0,92,0.00,,,0.02,meteohub,2013-06-25 05:37:00,
2013-06-25 01:42:00,65.7,63.0,29.98,WSW,249,0.0,3.0,91,0.00,,,0.02,meteohub,2013-06-25 05:42:00,
2013-06-25 01:47:00,65.5,63.1,29.97,WSW,250,0.0,2.0,92,0.00,,,0.02,meteohub,2013-06-25 05:47:00,
2013-06-25 01:52:00,65.1,62.8,29.97,NW,319,0.0,2.0,92,0.00,,,0.02,meteohub,2013-06-25 05:52:00,
2013-06-25 01:57:00,65.1,62.8,29.98,NW,319,0.0,4.0,92,0.00,,,0.02,meteohub,2013-06-25 05:57:00,
2013-06-25 02:02:00,65.1,62.8,29.98,NW,319,0.0,4.0,92,0.00,,,0.02,meteohub,2013-06-25 06:02:00,
2013-06-25 02:07:00,65.3,63.0,29.98,NW,318,0.0,4.0,92,0.00,,,0.02,meteohub,2013-06-25 06:07:00,
2013-06-25 02:12:00,65.3,63.0,29.97,NW,318,0.0,4.0,92,0.00,,,0.02,meteohub,2013-06-25 06:12:00,
2013-06-25 02:17:00,65.5,63.1,29.97,West,278,2.0,4.0,92,0.00,,,0.02,meteohub,2013-06-25 06:17:00,
2013-06-25 02:22:00,65.7,62.6,29.97,WSW,255,0.0,4.0,90,0.00,,,0.02,meteohub,2013-06-25 06:22:00,
2013-06-25 02:27:00,65.8,62.4,29.97,WSW,240,0.0,4.0,89,0.00,,,0.02,meteohub,2013-06-25 06:27:00,
2013-06-25 02:32:00,65.8,62.4,29.97,WSW,250,2.0,4.0,89,0.00,,,0.02,meteohub,2013-06-25 06:32:00,
2013-06-25 02:37:00,65.8,62.4,29.97,WSW,257,0.0,4.0,89,0.00,,,0.02,meteohub,2013-06-25 06:37:00,
2013-06-25 02:42:00,65.7,62.6,29.96,WSW,257,0.0,2.0,90,0.00,,,0.02,meteohub,2013-06-25 06:42:00,
2013-06-25 02:47:00,65.5,62.4,29.96,WSW,257,0.0,2.0,90,0.00,,,0.02,meteohub,2013-06-25 06:47:00,
2013-06-25 02:52:00,65.5,62.4,29.96,WSW,257,1.0,1.0,90,0.00,,,0.02,meteohub,2013-06-25 06:52:00,
2013-06-25 02:57:00,65.1,62.4,29.96,WSW,257,0.0,1.0,91,0.00,,,0.02,meteohub,2013-06-25 06:57:00,
2013-06-25 03:02:00,64.9,62.2,29.96,West,265,1.0,1.0,91,0.00,,,0.02,meteohub,2013-06-25 07:02:00,
2013-06-25 03:07:00,64.9,62.2,29.96,West,268,0.0,3.0,91,0.00,,,0.02,meteohub,2013-06-25 07:07:00,
2013-06-25 03:12:00,65.1,62.1,29.96,West,268,0.0,4.0,90,0.00,,,0.02,meteohub,2013-06-25 07:12:00,
2013-06-25 03:17:00,64.9,62.2,29.96,West,268,0.0,4.0,91,0.00,,,0.02,meteohub,2013-06-25 07:17:00,
2013-06-25 03:22:00,64.9,61.9,29.96,West,269,0.0,4.0,90,0.00,,,0.02,meteohub,2013-06-25 07:22:00,
2013-06-25 03:27:00,65.1,61.9,29.96,West,269,1.0,3.0,89,0.00,,,0.02,meteohub,2013-06-25 07:27:00,
2013-06-25 03:33:00,65.1,62.1,29.95,West,269,0.0,3.0,90,0.00,,,0.02,meteohub,2013-06-25 07:33:00,
2013-06-25 03:38:00,64.9,61.9,29.96,West,269,1.0,2.0,90,0.00,,,0.02,meteohub,2013-06-25 07:38:00,
2013-06-25 03:43:00,64.6,61.9,29.96,West,269,0.0,1.0,91,0.00,,,0.02,meteohub,2013-06-25 07:43:00,
2013-06-25 03:48:00,64.4,61.7,29.96,West,269,0.0,1.0,91,0.00,,,0.02,meteohub,2013-06-25 07:48:00,
2013-06-25 03:53:00,64.2,61.5,29.96,West,269,0.0,1.0,91,0.00,,,0.02,meteohub,2013-06-25 07:53:00,
2013-06-25 03:58:00,64.6,62.2,29.96,West,277,0.0,1.0,92,0.00,,,0.02,meteohub,2013-06-25 07:58:00,
2013-06-25 04:03:00,64.6,61.9,29.96,West,277,0.0,5.0,91,0.00,,,0.02,meteohub,2013-06-25 08:03:00,
2013-06-25 04:08:00,64.6,62.2,29.96,West,277,0.0,5.0,92,0.00,,,0.02,meteohub,2013-06-25 08:08:00,
2013-06-25 04:13:00,64.2,61.9,29.96,West,277,1.0,3.0,92,0.00,,,0.02,meteohub,2013-06-25 08:13:00,
2013-06-25 04:18:00,64.2,61.9,29.96,West,277,0.0,1.0,92,0.00,,,0.02,meteohub,2013-06-25 08:18:00,
2013-06-25 04:23:00,64.0,62.1,29.96,West,277,0.0,1.0,93,0.00,,,0.02,meteohub,2013-06-25 08:23:00,
2013-06-25 04:28:00,63.9,61.9,29.96,West,277,0.0,1.0,93,0.00,,,0.02,meteohub,2013-06-25 08:28:00,
2013-06-25 04:33:00,63.7,61.9,29.96,West,277,0.0,1.0,94,0.00,,,0.02,meteohub,2013-06-25 08:33:00,
2013-06-25 04:38:00,63.5,61.7,29.96,West,277,0.0,1.0,94,0.00,,,0.02,meteohub,2013-06-25 08:38:00,
2013-06-25 04:43:00,63.3,61.5,29.96,West,277,0.0,1.0,94,0.00,,,0.02,meteohub,2013-06-25 08:43:00,
2013-06-25 04:48:00,63.0,61.5,29.95,West,277,1.0,1.0,95,0.00,,,0.02,meteohub,2013-06-25 08:48:00,
2013-06-25 04:53:00,62.8,61.3,29.96,West,277,0.0,2.0,95,0.00,,,0.02,meteohub,2013-06-25 08:53:00,
2013-06-25 04:58:00,62.8,61.3,29.96,West,277,0.0,2.0,95,0.00,,,0.02,meteohub,2013-06-25 08:58:00,
2013-06-25 05:03:00,62.8,61.7,29.96,West,277,0.0,2.0,96,0.00,,,0.02,meteohub,2013-06-25 09:03:00,
2013-06-25 05:08:00,62.6,61.5,29.95,West,277,0.0,2.0,96,0.00,,,0.02,meteohub,2013-06-25 09:08:00,
2013-06-25 05:13:00,62.4,61.3,29.96,West,277,0.0,2.0,96,0.00,,,0.02,meteohub,2013-06-25 09:13:00,
2013-06-25 05:18:00,62.2,61.2,29.95,West,277,1.0,2.0,96,0.00,,,0.02,meteohub,2013-06-25 09:18:00,
2013-06-25 05:23:00,62.2,61.2,29.96,West,277,0.0,1.0,96,0.00,,,0.02,meteohub,2013-06-25 09:23:00,
2013-06-25 05:28:00,62.4,61.3,29.96,West,277,0.0,1.0,96,0.00,,,0.02,meteohub,2013-06-25 09:28:00,
2013-06-25 05:33:00,62.4,61.5,29.95,West,277,0.0,1.0,97,0.00,,,0.02,meteohub,2013-06-25 09:33:00,
2013-06-25 05:38:00,62.6,61.7,29.95,West,277,1.0,1.0,97,0.00,,,0.02,meteohub,2013-06-25 09:38:00,
2013-06-25 05:43:00,62.8,61.7,29.96,West,277,0.0,1.0,96,0.00,,,0.02,meteohub,2013-06-25 09:43:00,
2013-06-25 05:48:00,62.8,61.7,29.96,West,277,0.0,1.0,96,0.00,,,0.02,meteohub,2013-06-25 09:48:00,
2013-06-25 05:53:00,63.0,61.9,29.96,West,277,0.0,1.0,96,0.00,,,0.02,meteohub,2013-06-25 09:53:00,
2013-06-25 05:58:00,63.0,61.9,29.96,West,277,0.0,1.0,96,0.00,,,0.02,meteohub,2013-06-25 09:58:00,
2013-06-25 06:03:00,62.8,61.7,29.96,NW,314,0.0,1.0,96,0.00,,,0.02,meteohub,2013-06-25 10:03:00,
2013-06-25 06:08:00,63.0,61.9,29.96,South,175,0.0,1.0,96,0.00,,,0.02,meteohub,2013-06-25 10:08:00,
2013-06-25 06:13:00,63.1,62.1,29.96,South,175,0.0,1.0,96,0.00,,,0.02,meteohub,2013-06-25 10:13:00,
2013-06-25 06:18:00,63.1,62.1,29.96,South,175,0.0,1.0,96,0.00,,,0.02,meteohub,2013-06-25 10:18:00,
2013-06-25 06:23:00,63.3,62.2,29.96,South,175,0.0,1.0,96,0.00,,,0.02,meteohub,2013-06-25 10:23:00,
2013-06-25 06:28:00,63.5,62.4,29.95,South,175,0.0,1.0,96,0.00,,,0.02,meteohub,2013-06-25 10:28:00,
2013-06-25 06:33:00,63.9,62.8,29.95,North,355,0.0,1.0,96,0.00,,,0.02,meteohub,2013-06-25 10:33:00,
2013-06-25 06:38:00,64.0,62.6,29.94,North,355,0.0,1.0,95,0.00,,,0.02,meteohub,2013-06-25 10:38:00,
2013-06-25 06:43:00,64.6,63.1,29.95,North,355,1.0,1.0,95,0.00,,,0.02,meteohub,2013-06-25 10:43:00,
2013-06-25 06:48:00,64.8,63.3,29.95,North,355,0.0,2.0,95,0.00,,,0.02,meteohub,2013-06-25 10:48:00,
2013-06-25 06:53:00,65.1,63.7,29.94,North,355,0.0,2.0,95,0.00,,,0.02,meteohub,2013-06-25 10:53:00,
2013-06-25 06:58:00,65.7,64.2,29.94,North,355,0.0,2.0,95,0.00,,,0.02,meteohub,2013-06-25 10:58:00,
2013-06-25 07:03:00,66.0,64.6,29.95,North,355,0.0,1.0,95,0.00,,,0.02,meteohub,2013-06-25 11:03:00,
2013-06-25 07:08:00,66.7,64.6,29.94,North,355,0.0,1.0,93,0.00,,,0.02,meteohub,2013-06-25 11:08:00,
2013-06-25 07:13:00,67.6,65.8,29.94,North,355,0.0,1.0,94,0.00,,,0.02,meteohub,2013-06-25 11:13:00,
2013-06-25 07:18:00,67.8,65.1,29.94,North,355,0.0,1.0,91,0.00,,,0.02,meteohub,2013-06-25 11:18:00,
2013-06-25 07:23:00,68.2,65.5,29.94,North,355,0.0,1.0,91,0.00,,,0.02,meteohub,2013-06-25 11:23:00,
2013-06-25 07:28:00,68.5,65.5,29.94,NNW,346,0.0,1.0,90,0.00,,,0.02,meteohub,2013-06-25 11:28:00,
2013-06-25 07:33:00,69.3,65.8,29.95,NNW,346,0.0,2.0,89,0.00,,,0.02,meteohub,2013-06-25 11:33:00,
2013-06-25 07:38:00,70.0,66.6,29.94,NNW,346,0.0,2.0,89,0.00,,,0.02,meteohub,2013-06-25 11:38:00,
2013-06-25 07:43:00,70.3,66.9,29.94,NNW,346,0.0,2.0,89,0.00,,,0.02,meteohub,2013-06-25 11:43:00,
2013-06-25 07:48:00,70.3,66.2,29.94,NNW,346,0.0,1.0,87,0.00,,,0.02,meteohub,2013-06-25 11:48:00,
2013-06-25 07:53:00,70.3,65.7,29.94,NNW,340,0.0,2.0,85,0.00,,,0.02,meteohub,2013-06-25 11:53:00,
2013-06-25 07:58:00,70.2,66.0,29.94,NNW,340,0.0,3.0,87,0.00,,,0.02,meteohub,2013-06-25 11:58:00,
2013-06-25 08:03:00,70.2,65.8,29.94,NNW,340,0.0,3.0,86,0.00,,,0.02,meteohub,2013-06-25 12:03:00,
2013-06-25 08:08:00,70.2,65.8,29.94,NNW,340,0.0,3.0,86,0.00,,,0.02,meteohub,2013-06-25 12:08:00,
2013-06-25 08:13:00,70.2,65.8,29.94,West,260,0.0,1.0,86,0.00,,,0.02,meteohub,2013-06-25 12:13:00,
2013-06-25 08:18:00,70.3,65.7,29.94,West,267,0.0,1.0,85,0.00,,,0.02,meteohub,2013-06-25 12:18:00,
2013-06-25 08:24:00,70.3,65.7,29.94,SW,215,0.0,3.0,85,0.00,,,0.02,meteohub,2013-06-25 12:24:00,
2013-06-25 08:29:00,70.3,65.7,29.94,SSW,207,1.0,3.0,85,0.00,,,0.02,meteohub,2013-06-25 12:29:00,
2013-06-25 08:34:00,70.5,66.2,29.94,SSW,207,0.0,2.0,86,0.00,,,0.02,meteohub,2013-06-25 12:34:00,
2013-06-25 08:39:00,70.5,66.2,29.94,WNW,286,1.0,2.0,86,0.00,,,0.02,meteohub,2013-06-25 12:39:00,
2013-06-25 08:44:00,70.5,66.2,29.94,WNW,285,0.0,2.0,86,0.00,,,0.02,meteohub,2013-06-25 12:44:00,
2013-06-25 08:49:00,70.9,65.8,29.94,West,271,1.0,2.0,84,0.00,,,0.02,meteohub,2013-06-25 12:49:00,
2013-06-25 08:54:00,71.2,65.5,29.93,SW,217,0.0,2.0,82,0.00,,,0.02,meteohub,2013-06-25 12:54:00,
2013-06-25 08:59:00,71.8,66.0,29.94,SW,217,0.0,4.0,82,0.00,,,0.02,meteohub,2013-06-25 12:59:00,
2013-06-25 09:04:00,72.1,66.7,29.94,SW,214,2.0,4.0,83,0.00,,,0.02,meteohub,2013-06-25 13:04:00,
2013-06-25 09:09:00,72.5,67.5,29.94,SW,214,1.0,3.0,84,0.00,,,0.02,meteohub,2013-06-25 13:09:00,
2013-06-25 09:14:00,72.9,67.5,29.94,WNW,297,2.0,4.0,83,0.00,,,0.02,meteohub,2013-06-25 13:14:00,
2013-06-25 09:19:00,73.2,66.7,29.93,WSW,247,1.0,4.0,80,0.00,,,0.02,meteohub,2013-06-25 13:19:00,
2013-06-25 09:24:00,73.8,68.4,29.94,SSW,202,0.0,7.0,83,0.00,,,0.02,meteohub,2013-06-25 13:24:00,
2013-06-25 09:29:00,74.1,68.0,29.93,SW,217,1.0,7.0,81,0.00,,,0.02,meteohub,2013-06-25 13:29:00,
2013-06-25 09:34:00,74.1,67.6,29.93,South,188,0.0,4.0,80,0.00,,,0.02,meteohub,2013-06-25 13:34:00,
2013-06-25 09:39:00,74.3,67.6,29.93,West,265,1.0,5.0,80,0.00,,,0.02,meteohub,2013-06-25 13:39:00,
2013-06-25 09:44:00,74.5,68.5,29.93,South,185,1.0,5.0,82,0.00,,,0.02,meteohub,2013-06-25 13:44:00,
2013-06-25 09:49:00,74.5,67.5,29.94,WNW,290,2.0,4.0,79,0.00,,,0.02,meteohub,2013-06-25 13:49:00,
2013-06-25 09:54:00,74.7,68.4,29.94,SSW,203,0.0,4.0,81,0.00,,,0.02,meteohub,2013-06-25 13:54:00,
2013-06-25 09:59:00,74.8,68.2,29.94,West,280,0.0,5.0,80,0.00,,,0.02,meteohub,2013-06-25 13:59:00,
2013-06-25 10:04:00,75.6,69.3,29.94,WNW,296,0.0,7.0,81,0.00,,,0.02,meteohub,2013-06-25 14:04:00,
2013-06-25 10:09:00,75.9,69.3,29.94,WNW,286,4.0,7.0,80,0.00,,,0.02,meteohub,2013-06-25 14:09:00,
2013-06-25 10:14:00,76.3,69.3,29.94,WNW,290,1.0,7.0,79,0.00,,,0.02,meteohub,2013-06-25 14:14:00,
2013-06-25 10:19:00,76.5,69.1,29.94,WSW,251,0.0,5.0,78,0.00,,,0.02,meteohub,2013-06-25 14:19:00,
2013-06-25 10:24:00,76.6,69.3,29.94,WNW,284,1.0,6.0,78,0.00,,,0.02,meteohub,2013-06-25 14:24:00,
2013-06-25 10:29:00,76.6,68.9,29.94,WNW,296,1.0,6.0,77,0.00,,,0.02,meteohub,2013-06-25 14:29:00,
2013-06-25 10:34:00,76.6,68.9,29.94,West,280,2.0,7.0,77,0.00,,,0.02,meteohub,2013-06-25 14:34:00,
2013-06-25 10:39:00,76.6,69.3,29.94,WSW,252,1.0,7.0,78,0.00,,,0.02,meteohub,2013-06-25 14:39:00,
2013-06-25 10:44:00,77.2,68.7,29.94,West,265,0.0,7.0,75,0.00,,,0.02,meteohub,2013-06-25 14:44:00,
2013-06-25 10:49:00,77.5,68.5,29.93,WSW,249,2.0,5.0,74,0.00,,,0.02,meteohub,2013-06-25 14:49:00,
2013-06-25 10:54:00,77.7,69.1,29.93,WSW,239,3.0,7.0,75,0.00,,,0.02,meteohub,2013-06-25 14:54:00,
2013-06-25 10:59:00,78.1,69.1,29.94,WNW,291,0.0,7.0,74,0.00,,,0.02,meteohub,2013-06-25 14:59:00,
2013-06-25 11:04:00,78.3,69.6,29.94,SW,223,0.0,7.0,75,0.00,,,0.02,meteohub,2013-06-25 15:04:00,
2013-06-25 11:09:00,78.6,70.3,29.93,South,186,1.0,6.0,76,0.00,,,0.02,meteohub,2013-06-25 15:09:00,
2013-06-25 11:14:00,79.3,70.0,29.93,West,264,1.0,6.0,73,0.00,,,0.02,meteohub,2013-06-25 15:14:00,
2013-06-25 11:19:00,79.2,69.3,29.93,WNW,285,3.0,5.0,72,0.00,,,0.02,meteohub,2013-06-25 15:19:00,
2013-06-25 11:24:00,79.2,69.8,29.94,SSW,211,2.0,8.0,73,0.00,,,0.02,meteohub,2013-06-25 15:24:00,
2013-06-25 11:29:00,79.0,69.3,29.93,West,275,0.0,8.0,72,0.00,,,0.02,meteohub,2013-06-25 15:29:00,
2013-06-25 11:34:00,79.2,69.3,29.94,NW,317,1.0,8.0,72,0.00,,,0.02,meteohub,2013-06-25 15:34:00,
2013-06-25 11:39:00,79.2,68.9,29.93,ENE,74,0.0,8.0,71,0.00,,,0.02,meteohub,2013-06-25 15:39:00,
2013-06-25 11:44:00,79.3,70.0,29.93,SSW,193,4.0,8.0,73,0.00,,,0.02,meteohub,2013-06-25 15:44:00,
2013-06-25 11:49:00,79.2,69.8,29.93,West,277,1.0,8.0,73,0.00,,,0.02,meteohub,2013-06-25 15:49:00,
2013-06-25 11:54:00,79.3,70.0,29.93,WNW,286,7.0,8.0,73,0.00,,,0.02,meteohub,2013-06-25 15:54:00,
2013-06-25 11:59:00,79.3,68.7,29.93,West,278,0.0,9.0,70,0.00,,,0.02,meteohub,2013-06-25 15:59:00,
2013-06-25 12:04:00,79.3,68.7,29.92,WSW,255,2.0,9.0,70,0.00,,,0.02,meteohub,2013-06-25 16:04:00,
2013-06-25 12:09:00,79.5,70.9,29.92,SW,229,5.0,9.0,75,0.00,,,0.02,meteohub,2013-06-25 16:09:00,
2013-06-25 12:14:00,79.5,69.6,29.92,WSW,251,2.0,9.0,72,0.00,,,0.02,meteohub,2013-06-25 16:14:00,
2013-06-25 12:19:00,79.9,70.0,29.92,West,269,5.0,9.0,72,0.00,,,0.02,meteohub,2013-06-25 16:19:00,
2013-06-25 12:24:00,80.1,68.9,29.92,West,270,3.0,9.0,69,0.00,,,0.02,meteohub,2013-06-25 16:24:00,
2013-06-25 12:29:00,80.2,69.6,29.91,WSW,249,1.0,9.0,70,0.00,,,0.02,meteohub,2013-06-25 16:29:00,
2013-06-25 12:34:00,80.4,70.2,29.91,WSW,254,5.0,8.0,71,0.00,,,0.02,meteohub,2013-06-25 16:34:00,
2013-06-25 12:40:00,80.6,70.3,29.91,SSW,203,3.0,8.0,71,0.00,,,0.02,meteohub,2013-06-25 16:40:00,
2013-06-25 12:45:00,80.8,69.3,29.91,WSW,258,6.0,9.0,68,0.00,,,0.02,meteohub,2013-06-25 16:45:00,
2013-06-25 12:50:00,80.2,69.1,29.91,West,268,8.0,11.0,69,0.00,,,0.02,meteohub,2013-06-25 16:50:00,
2013-06-25 12:55:00,80.2,69.1,29.91,WSW,237,5.0,11.0,69,0.00,,,0.02,meteohub,2013-06-25 16:55:00,
2013-06-25 13:00:00,80.2,69.6,29.90,SW,227,12.0,12.0,70,0.00,,,0.02,meteohub,2013-06-25 17:00:00,
2013-06-25 13:05:00,80.2,69.6,29.90,North,11,8.0,11.0,70,0.00,,,0.02,meteohub,2013-06-25 17:05:00,
2013-06-25 13:10:00,80.2,68.7,29.89,WSW,258,2.0,13.0,68,0.00,,,0.02,meteohub,2013-06-25 17:10:00,
2013-06-25 13:15:00,80.4,69.3,29.89,West,279,4.0,13.0,69,0.00,,,0.02,meteohub,2013-06-25 17:15:00,
2013-06-25 13:20:00,80.4,68.5,29.89,WSW,254,3.0,12.0,67,0.00,,,0.02,meteohub,2013-06-25 17:20:00,
2013-06-25 13:25:00,80.6,70.0,29.88,WNW,296,5.0,12.0,70,0.00,,,0.02,meteohub,2013-06-25 17:25:00,
2013-06-25 13:30:00,80.4,68.5,29.88,WNW,290,2.0,10.0,67,0.00,,,0.02,meteohub,2013-06-25 17:30:00,
2013-06-25 13:35:00,80.6,69.4,29.87,WSW,244,6.0,10.0,69,0.00,,,0.02,meteohub,2013-06-25 17:35:00,
2013-06-25 13:40:00,80.8,69.3,29.88,NNW,328,3.0,11.0,68,0.00,,,0.02,meteohub,2013-06-25 17:40:00,
2013-06-25 13:45:00,80.8,68.4,29.87,WSW,252,6.0,11.0,66,0.00,,,0.02,meteohub,2013-06-25 17:45:00,
2013-06-25 13:50:00,81.0,70.2,29.87,WSW,246,5.0,10.0,70,0.00,,,0.02,meteohub,2013-06-25 17:50:00,
2013-06-25 13:55:00,81.3,69.8,29.87,NW,307,1.0,10.0,68,0.00,,,0.02,meteohub,2013-06-25 17:55:00,
2013-06-25 14:00:00,81.7,70.9,29.86,WSW,240,4.0,10.0,70,0.00,,,0.02,meteohub,2013-06-25 18:00:00,
2013-06-25 14:05:00,81.5,70.0,29.86,WNW,294,9.0,9.0,68,0.00,,,0.02,meteohub,2013-06-25 18:05:00,
2013-06-25 14:10:00,80.8,68.7,29.86,WSW,252,2.0,13.0,67,0.00,,,0.02,meteohub,2013-06-25 18:10:00,
2013-06-25 14:15:00,80.2,68.7,29.86,SW,225,3.0,13.0,68,0.00,,,0.02,meteohub,2013-06-25 18:15:00,
2013-06-25 14:20:00,80.1,69.4,29.85,SW,219,1.0,13.0,70,0.00,,,0.02,meteohub,2013-06-25 18:20:00,
2013-06-25 14:25:00,80.4,70.2,29.85,NNW,332,2.0,11.0,71,0.00,,,0.02,meteohub,2013-06-25 18:25:00,
2013-06-25 14:30:00,81.1,70.0,29.85,South,181,1.0,11.0,69,0.00,,,0.02,meteohub,2013-06-25 18:30:00,
2013-06-25 14:35:00,81.7,70.2,29.85,WNW,298,7.0,12.0,68,0.00,,,0.02,meteohub,2013-06-25 18:35:00,
2013-06-25 14:40:00,81.1,68.2,29.85,West,266,6.0,12.0,65,0.00,,,0.02,meteohub,2013-06-25 18:40:00,
2013-06-25 14:45:00,80.4,68.0,29.85,WNW,298,4.0,12.0,66,0.00,,,0.02,meteohub,2013-06-25 18:45:00,
2013-06-25 14:50:00,81.0,68.5,29.85,NW,312,6.0,11.0,66,0.00,,,0.02,meteohub,2013-06-25 18:50:00,
2013-06-25 14:55:00,81.5,68.2,29.85,NW,323,4.0,11.0,64,0.00,,,0.02,meteohub,2013-06-25 18:55:00,
2013-06-25 15:00:00,82.0,68.7,29.85,WSW,248,6.0,11.0,64,0.00,,,0.02,meteohub,2013-06-25 19:00:00,
2013-06-25 15:05:00,82.2,69.3,29.84,West,261,4.0,11.0,65,0.00,,,0.02,meteohub,2013-06-25 19:05:00,
2013-06-25 15:10:00,82.2,68.9,29.83,SW,236,5.0,11.0,64,0.00,,,0.02,meteohub,2013-06-25 19:10:00,
2013-06-25 15:15:00,82.4,69.4,29.83,WSW,238,7.0,10.0,65,0.00,,,0.02,meteohub,2013-06-25 19:15:00,
2013-06-25 15:20:00,82.0,69.1,29.83,WSW,252,3.0,10.0,65,0.00,,,0.02,meteohub,2013-06-25 19:20:00,
2013-06-25 15:25:00,82.0,70.0,29.83,WSW,257,4.0,10.0,67,0.00,,,0.02,meteohub,2013-06-25 19:25:00,
2013-06-25 15:30:00,82.0,69.6,29.83,WSW,246,5.0,10.0,66,0.00,,,0.02,meteohub,2013-06-25 19:30:00,
2013-06-25 15:35:00,81.9,69.4,29.83,WNW,298,7.0,11.0,66,0.00,,,0.02,meteohub,2013-06-25 19:35:00,
2013-06-25 15:40:00,81.3,70.2,29.83,WNW,302,1.0,11.0,69,0.00,,,0.02,meteohub,2013-06-25 19:40:00,
2013-06-25 15:45:00,80.8,70.5,29.83,NW,317,3.0,11.0,71,0.00,,,0.02,meteohub,2013-06-25 19:45:00,
2013-06-25 15:50:00,79.9,69.3,29.83,NW,309,3.0,8.0,70,0.00,,,0.02,meteohub,2013-06-25 19:50:00,
2013-06-25 15:55:00,79.0,68.7,29.83,West,263,1.0,7.0,71,0.00,,,0.02,meteohub,2013-06-25 19:55:00,
2013-06-25 16:01:00,78.6,68.9,29.83,WSW,245,2.0,7.0,72,0.00,,,0.02,meteohub,2013-06-25 20:01:00,
2013-06-25 16:06:00,78.6,69.6,29.82,West,266,0.0,7.0,74,0.00,,,0.02,meteohub,2013-06-25 20:06:00,
2013-06-25 16:11:00,78.8,69.8,29.82,WSW,238,2.0,5.0,74,0.00,,,0.02,meteohub,2013-06-25 20:11:00,
2013-06-25 16:16:00,78.8,70.2,29.82,NW,319,1.0,6.0,75,0.00,,,0.02,meteohub,2013-06-25 20:16:00,
2013-06-25 16:21:00,78.4,69.1,29.82,SW,221,2.0,6.0,73,0.00,,,0.02,meteohub,2013-06-25 20:21:00,
2013-06-25 16:26:00,78.3,69.6,29.83,WSW,258,1.0,6.0,75,0.00,,,0.02,meteohub,2013-06-25 20:26:00,
2013-06-25 16:31:00,78.1,70.3,29.83,West,280,0.0,6.0,77,0.00,,,0.02,meteohub,2013-06-25 20:31:00,
2013-06-25 16:36:00,77.5,69.8,29.83,NW,309,1.0,6.0,77,0.00,,,0.02,meteohub,2013-06-25 20:36:00,
2013-06-25 16:41:00,77.4,69.6,29.83,NW,304,0.0,6.0,77,0.00,,,0.02,meteohub,2013-06-25 20:41:00,
2013-06-25 16:46:00,77.2,70.2,29.83,WNW,286,0.0,6.0,79,0.00,,,0.02,meteohub,2013-06-25 20:46:00,
2013-06-25 16:51:00,76.8,69.4,29.83,WNW,296,0.0,3.0,78,0.00,,,0.02,meteohub,2013-06-25 20:51:00,
2013-06-25 16:56:00,76.8,69.4,29.83,West,267,0.0,5.0,78,0.00,,,0.02,meteohub,2013-06-25 20:56:00,
2013-06-25 17:01:00,76.8,69.8,29.83,WNW,290,0.0,5.0,79,0.00,,,0.02,meteohub,2013-06-25 21:01:00,
2013-06-25 17:02:00,76.8,69.8,29.83,WNW,290,0.0,5.0,79,0.00,,,0.02,meteohub,2013-06-25 21:02:00,
2013-06-25 17:07:00,75.6,67.5,29.86,West,259,6.0,6.0,76,0.01,,,0.03,meteohub,2013-06-25 21:07:00,
2013-06-25 17:12:00,70.7,65.7,29.86,NNW,344,5.0,25.0,84,0.03,,,0.05,meteohub,2013-06-25 21:12:00,
2013-06-25 17:17:00,67.8,64.2,29.85,West,261,5.0,25.0,88,0.03,,,0.05,meteohub,2013-06-25 21:17:00,
2013-06-25 17:22:00,66.7,64.0,29.84,WSW,252,3.0,25.0,91,0.32,,,0.33,meteohub,2013-06-25 21:22:00,
2013-06-25 17:27:00,66.2,63.9,29.85,West,265,2.0,25.0,92,0.33,,,0.35,meteohub,2013-06-25 21:27:00,
2013-06-25 17:32:00,66.0,64.2,29.84,West,280,5.0,12.0,94,0.36,,,0.36,meteohub,2013-06-25 21:32:00,
2013-06-25 17:37:00,66.0,64.2,29.84,NW,312,3.0,10.0,94,0.40,,,0.42,meteohub,2013-06-25 21:37:00,
2013-06-25 17:42:00,65.8,64.0,29.84,West,275,0.0,10.0,94,0.47,,,0.49,meteohub,2013-06-25 21:42:00,
2013-06-25 17:47:00,65.7,63.9,29.83,West,281,1.0,10.0,94,0.52,,,0.52,meteohub,2013-06-25 21:47:00,
2013-06-25 17:52:00,65.7,63.9,29.83,WSW,240,0.0,10.0,94,0.54,,,0.56,meteohub,2013-06-25 21:52:00,
2013-06-25 17:57:00,65.5,63.7,29.82,East,96,1.0,10.0,94,0.59,,,0.61,meteohub,2013-06-25 21:57:00,
2013-06-25 18:02:00,65.5,64.0,29.82,SW,222,0.0,10.0,95,0.59,,,0.61,meteohub,2013-06-25 22:02:00,
2013-06-25 18:07:00,65.5,64.0,29.81,SW,222,0.0,4.0,95,0.59,,,0.62,meteohub,2013-06-25 22:07:00,
2013-06-25 18:12:00,65.5,64.2,29.82,SW,222,0.0,4.0,96,0.47,,,0.62,meteohub,2013-06-25 22:12:00,
2013-06-25 18:17:00,65.5,64.2,29.81,SW,222,0.0,4.0,96,0.31,,,0.62,meteohub,2013-06-25 22:17:00,
2013-06-25 18:22:00,65.7,64.4,29.82,NNW,346,0.0,3.0,96,0.28,,,0.62,meteohub,2013-06-25 22:22:00,
2013-06-25 18:27:00,65.8,64.9,29.82,WNW,302,0.0,3.0,97,0.27,,,0.62,meteohub,2013-06-25 22:27:00,
2013-06-25 18:32:00,66.0,65.1,29.82,WNW,302,0.0,1.0,97,0.23,,,0.62,meteohub,2013-06-25 22:32:00,
2013-06-25 18:37:00,66.6,65.7,29.82,South,177,0.0,1.0,97,0.15,,,0.62,meteohub,2013-06-25 22:37:00,
2013-06-25 18:42:00,66.7,65.8,29.82,South,177,0.0,1.0,97,0.11,,,0.62,meteohub,2013-06-25 22:42:00,
2013-06-25 18:47:00,66.9,66.0,29.81,South,177,0.0,1.0,97,0.07,,,0.62,meteohub,2013-06-25 22:47:00,
2013-06-25 18:52:00,67.3,66.4,29.82,South,177,0.0,1.0,97,0.03,,,0.62,meteohub,2013-06-25 22:52:00,
2013-06-25 18:57:00,67.5,66.2,29.82,South,177,0.0,1.0,96,0.03,,,0.62,meteohub,2013-06-25 22:57:00,
2013-06-25 19:02:00,67.8,66.9,29.82,South,177,0.0,1.0,97,0.01,,,0.62,meteohub,2013-06-25 23:02:00,
2013-06-25 19:07:00,67.8,66.6,29.81,SSE,167,0.0,1.0,96,0.01,,,0.62,meteohub,2013-06-25 23:07:00,
2013-06-25 19:12:00,67.6,66.4,29.81,SSE,167,0.0,4.0,96,0.00,,,0.62,meteohub,2013-06-25 23:12:00,
2013-06-25 19:17:00,67.5,66.2,29.81,SSE,167,0.0,4.0,96,0.00,,,0.62,meteohub,2013-06-25 23:17:00,
2013-06-25 19:22:00,67.5,66.2,29.81,SSE,167,0.0,4.0,96,0.00,,,0.62,meteohub,2013-06-25 23:22:00,
2013-06-25 19:27:00,67.5,66.2,29.81,SSE,167,0.0,1.0,96,0.00,,,0.62,meteohub,2013-06-25 23:27:00,
2013-06-25 19:32:00,67.3,66.0,29.81,SSE,167,0.0,0.0,96,0.00,,,0.62,meteohub,2013-06-25 23:32:00,
2013-06-25 19:37:00,67.3,66.0,29.81,SSE,167,0.0,0.0,96,0.00,,,0.62,meteohub,2013-06-25 23:37:00,
2013-06-25 19:42:00,67.3,66.4,29.82,SSE,167,0.0,0.0,97,0.00,,,0.62,meteohub,2013-06-25 23:42:00,
2013-06-25 19:47:00,67.3,66.4,29.82,SSE,167,0.0,0.0,97,0.00,,,0.62,meteohub,2013-06-25 23:47:00,
2013-06-25 19:52:00,67.3,66.4,29.82,SSE,167,0.0,0.0,97,0.00,,,0.62,meteohub,2013-06-25 23:52:00,
2013-06-25 19:57:00,67.5,66.6,29.82,SSE,167,0.0,1.0,97,0.00,,,0.62,meteohub,2013-06-25 23:57:00,
2013-06-25 20:02:00,67.5,66.6,29.82,SSE,167,0.0,1.0,97,0.00,,,0.62,meteohub,2013-06-26 00:02:00,
2013-06-25 20:07:00,67.5,66.6,29.81,SW,225,0.0,1.0,97,0.00,,,0.00,meteohub,2013-06-26 00:07:00,
2013-06-25 20:12:00,67.3,66.4,29.82,SW,225,0.0,2.0,97,0.00,,,0.00,meteohub,2013-06-26 00:12:00,
2013-06-25 20:17:00,67.3,66.4,29.82,SW,225,0.0,2.0,97,0.00,,,0.00,meteohub,2013-06-26 00:17:00,
2013-06-25 20:22:00,67.3,66.4,29.81,SW,225,0.0,2.0,97,0.00,,,0.00,meteohub,2013-06-26 00:22:00,
2013-06-25 20:27:00,67.1,66.2,29.81,SW,225,0.0,1.0,97,0.00,,,0.00,meteohub,2013-06-26 00:27:00,
2013-06-25 20:32:00,67.1,66.2,29.81,SW,225,0.0,0.0,97,0.00,,,0.00,meteohub,2013-06-26 00:32:00,
2013-06-25 20:37:00,66.9,66.0,29.81,SW,225,0.0,0.0,97,0.00,,,0.00,meteohub,2013-06-26 00:37:00,
2013-06-25 20:42:00,66.9,66.0,29.81,SW,225,0.0,1.0,97,0.00,,,0.00,meteohub,2013-06-26 00:42:00,
2013-06-25 20:48:00,66.7,65.8,29.81,SW,225,0.0,1.0,97,0.00,,,0.00,meteohub,2013-06-26 00:48:00,
2013-06-25 20:53:00,66.7,65.8,29.81,SW,225,0.0,1.0,97,0.00,,,0.00,meteohub,2013-06-26 00:53:00,
2013-06-25 20:58:00,66.7,66.2,29.82,SW,225,0.0,0.0,98,0.00,,,0.00,meteohub,2013-06-26 00:58:00,
2013-06-25 21:03:00,66.7,66.2,29.83,SW,225,0.0,0.0,98,0.00,,,0.00,meteohub,2013-06-26 01:03:00,
2013-06-25 21:08:00,66.9,66.4,29.83,SW,225,0.0,1.0,98,0.00,,,0.00,meteohub,2013-06-26 01:08:00,
2013-06-25 21:13:00,66.9,66.4,29.83,SW,225,0.0,1.0,98,0.00,,,0.00,meteohub,2013-06-26 01:13:00,
2013-06-25 21:18:00,66.9,66.4,29.83,SW,225,0.0,1.0,98,0.00,,,0.00,meteohub,2013-06-26 01:18:00,
2013-06-25 21:23:00,66.9,66.4,29.83,SW,225,0.0,0.0,98,0.00,,,0.00,meteohub,2013-06-26 01:23:00,
2013-06-25 21:28:00,66.9,66.4,29.83,SW,225,0.0,0.0,98,0.00,,,0.00,meteohub,2013-06-26 01:28:00,
2013-06-25 21:33:00,66.9,66.4,29.83,SW,225,0.0,1.0,98,0.00,,,0.00,meteohub,2013-06-26 01:33:00,
2013-06-25 21:38:00,66.9,66.4,29.83,SW,225,0.0,1.0,98,0.00,,,0.00,meteohub,2013-06-26 01:38:00,
2013-06-25 21:43:00,66.9,66.4,29.83,SW,225,0.0,1.0,98,0.00,,,0.00,meteohub,2013-06-26 01:43:00,
2013-06-25 21:48:00,66.9,66.4,29.83,SW,225,0.0,1.0,98,0.00,,,0.00,meteohub,2013-06-26 01:48:00,
2013-06-25 21:53:00,66.9,66.4,29.83,SW,225,0.0,1.0,98,0.00,,,0.00,meteohub,2013-06-26 01:53:00,
2013-06-25 21:58:00,66.9,66.4,29.83,SW,225,0.0,1.0,98,0.00,,,0.00,meteohub,2013-06-26 01:58:00,
2013-06-25 22:03:00,67.1,66.6,29.83,SW,225,0.0,1.0,98,0.00,,,0.00,meteohub,2013-06-26 02:03:00,
2013-06-25 22:08:00,67.3,66.7,29.83,SW,225,0.0,1.0,98,0.00,,,0.00,meteohub,2013-06-26 02:08:00,
2013-06-25 22:13:00,67.3,66.7,29.83,SSW,203,0.0,3.0,98,0.00,,,0.00,meteohub,2013-06-26 02:13:00,
2013-06-25 22:18:00,67.3,66.7,29.83,SSW,203,0.0,3.0,98,0.00,,,0.00,meteohub,2013-06-26 02:18:00,
2013-06-25 22:23:00,67.3,66.7,29.83,SSW,203,0.0,2.0,98,0.00,,,0.00,meteohub,2013-06-26 02:23:00,
2013-06-25 22:28:00,67.3,66.7,29.83,SSW,203,0.0,2.0,98,0.00,,,0.00,meteohub,2013-06-26 02:28:00,
2013-06-25 22:33:00,67.1,66.6,29.83,SSW,203,0.0,2.0,98,0.00,,,0.00,meteohub,2013-06-26 02:33:00,
2013-06-25 22:38:00,66.9,66.4,29.83,SSW,203,0.0,1.0,98,0.00,,,0.00,meteohub,2013-06-26 02:38:00,
2013-06-25 22:43:00,66.9,66.4,29.83,SSW,203,0.0,1.0,98,0.00,,,0.00,meteohub,2013-06-26 02:43:00,
2013-06-25 22:48:00,66.7,66.2,29.83,SSW,203,0.0,1.0,98,0.00,,,0.00,meteohub,2013-06-26 02:48:00,
2013-06-25 22:53:00,66.7,66.2,29.82,SSW,203,0.0,0.0,98,0.00,,,0.00,meteohub,2013-06-26 02:53:00,
2013-06-25 22:58:00,66.6,66.0,29.82,SSW,203,0.0,0.0,98,0.00,,,0.00,meteohub,2013-06-26 02:58:00,
2013-06-25 23:04:00,66.6,66.0,29.82,SSW,203,0.0,0.0,98,0.00,,,0.00,meteohub,2013-06-26 03:04:00,
2013-06-25 23:09:00,66.6,66.0,29.82,SSW,203,0.0,0.0,98,0.00,,,0.00,meteohub,2013-06-26 03:09:00,
2013-06-25 23:14:00,66.6,66.0,29.82,SSW,203,0.0,0.0,98,0.00,,,0.00,meteohub,2013-06-26 03:14:00,
2013-06-25 23:19:00,66.4,65.8,29.82,SSW,203,0.0,0.0,98,0.00,,,0.00,meteohub,2013-06-26 03:19:00,
2013-06-25 23:24:00,66.4,65.8,29.82,SSW,203,0.0,0.0,98,0.00,,,0.00,meteohub,2013-06-26 03:24:00,
2013-06-25 23:29:00,66.6,66.0,29.82,SSW,203,0.0,0.0,98,0.00,,,0.00,meteohub,2013-06-26 03:29:00,
2013-06-25 23:34:00,66.6,66.0,29.82,SSW,203,0.0,0.0,98,0.00,,,0.00,meteohub,2013-06-26 03:34:00,
2013-06-25 23:39:00,66.4,65.8,29.82,SSW,203,0.0,0.0,98,0.00,,,0.00,meteohub,2013-06-26 03:39:00,
2013-06-25 23:44:00,66.4,65.8,29.83,SSW,203,0.0,0.0,98,0.00,,,0.00,meteohub,2013-06-26 03:44:00,
2013-06-25 23:49:00,66.6,66.2,29.83,SSW,203,0.0,1.0,99,0.00,,,0.00,meteohub,2013-06-26 03:49:00,
2013-06-25 23:54:00,66.6,66.0,29.83,SSW,203,0.0,1.0,98,0.00,,,0.00,meteohub,2013-06-26 03:54:00,
2013-06-25 23:59:00,66.6,66.0,29.83,SSW,203,0.0,1.0,98,0.00,,,0.00,meteohub,2013-06-26 03:59:00,